Weather History for Morgantown, WV

Change the Weather History Date:

Wednesday, May 22, 2013

  Actual Average Record
Temperature  
Mean Temperature 74 °F 63 °F  
Max Temperature 84 °F 73 °F 90 °F (1970)
Min Temperature 63 °F 52 °F 30 °F (2002)
Degree Days  
Heating Degree Days 0 4  
Month to date heating degree days 76 138  
Since 1 July heating degree days 4838 5121  
Cooling Degree Days 9 2  
Month to date cooling degree days 68 30  
Year to date cooling degree days 105 46  
Growing Degree Days 23 (Base 50)    
Moisture  
Dew Point 61 °F    
Average Humidity 72    
Maximum Humidity 93    
Minimum Humidity 50    
Precipitation  
Precipitation 0.28 in 0.16 in 0.92 in (1949)
Month to date precipitation 3.41 3.21  
Year to date precipitation 12.18 15.79  
Sea Level Pressure  
Sea Level Pressure 29.88 in    
Wind  
Wind Speed 6 mph (SSW)    
Max Wind Speed 17 mph    
Max Gust Speed 29 mph    
Visibility 9 miles    
Events Rain , Thunderstorm    
T = Trace of Precipitation, MM = Missing Value Source: NWS Daily Summary

Daily Weather History Graph

Daily Weather History Graph

Search for Another Location

Airport:

Trip Planner

Search our weather history database for the weather conditions in past years. The results will help you decide how hot, cold, wet, or windy it might be!

Date:

Astronomy

May. 22, 2013 Rise Set
Actual Time 5:59 AM EDT 8:33 PM EDT
Civil Twilight 5:28 AM EDT 9:04 PM EDT
Nautical Twilight 4:49 AM EDT 9:43 PM EDT
Astronomical Twilight 4:06 AM EDT 10:27 PM EDT
Moon 5:54 PM EDT (5/22) 4:01 AM EDT (5/22)
Length of Visible Light 15h 36m
Length of Day
14h 34m
Waxing Gibbous, 91% of the Moon is Illuminated
May 22
Waxing Gibbous
May 25
Full
May 31
Last Quarter
Jun 8
New
Jun 16
First Quarter

Hourly Weather History & Observations

Time (EDT) Temp. Heat Index Dew Point Humidity Pressure Visibility Wind Dir Wind Speed Gust Speed Precip Events Conditions
12:53 AM 73.0 °F - 62.1 °F 68% 29.91 in 10.0 mi Variable 5.8 mph - N/A   Clear
1:53 AM 72.0 °F - 59.0 °F 64% 29.89 in 10.0 mi SSW 4.6 mph - N/A   Clear
2:53 AM 70.0 °F - 60.1 °F 71% 29.87 in 10.0 mi South 3.5 mph - N/A   Mostly Cloudy
3:53 AM 71.1 °F - 60.1 °F 68% 29.87 in 10.0 mi SW 5.8 mph - N/A   Mostly Cloudy
4:53 AM 70.0 °F - 60.1 °F 71% 29.88 in 10.0 mi SW 4.6 mph - N/A   Clear
5:53 AM 68.0 °F - 59.0 °F 73% 29.89 in 10.0 mi South 3.5 mph - N/A   Scattered Clouds
6:53 AM 69.1 °F - 59.0 °F 70% 29.90 in 10.0 mi Calm Calm - N/A   Clear
7:53 AM 71.1 °F - 60.1 °F 68% 29.92 in 10.0 mi Calm Calm - N/A   Clear
8:53 AM 73.9 °F - 59.0 °F 59% 29.92 in 10.0 mi South 5.8 mph - N/A   Partly Cloudy
9:53 AM 77.0 °F - 57.0 °F 50% 29.91 in 10.0 mi SW 8.1 mph - N/A   Partly Cloudy
10:53 AM 79.0 °F - 59.0 °F 50% 29.91 in 10.0 mi South 6.9 mph - N/A   Clear
11:53 AM 80.1 °F 81.1 °F 61.0 °F 52% 29.90 in 10.0 mi South 10.4 mph - N/A   Clear
12:53 PM 82.0 °F 83.0 °F 62.1 °F 51% 29.88 in 10.0 mi South 10.4 mph 20.7 mph N/A   Scattered Clouds
1:53 PM 82.0 °F 83.1 °F 63.0 °F 52% 29.86 in 10.0 mi SSW 8.1 mph - N/A   Scattered Clouds
2:53 PM 82.0 °F 83.0 °F 62.1 °F 51% 29.84 in 10.0 mi Variable 6.9 mph - N/A   Scattered Clouds
3:53 PM 73.0 °F - 62.1 °F 68% 29.88 in 10.0 mi West 10.4 mph 25.3 mph 0.01 in Rain , Thunderstorm Light Thunderstorms and Rain
4:17 PM 68.0 °F - 62.6 °F 83% 29.94 in 1.8 mi SW 10.4 mph 16.1 mph 0.11 in Rain , Thunderstorm Light Thunderstorms and Rain
4:31 PM 66.2 °F - 60.8 °F 83% 29.92 in 3.0 mi Variable 6.9 mph - 0.20 in Rain , Thunderstorm Light Thunderstorms and Rain
4:53 PM 64.9 °F - 61.0 °F 87% 29.87 in 10.0 mi ESE 6.9 mph - 0.21 in Rain , Thunderstorm Light Thunderstorms and Rain
5:19 PM 68.0 °F - 62.6 °F 83% 29.86 in 10.0 mi South 4.6 mph - 0.00 in   Scattered Clouds
5:53 PM 68.0 °F - 64.9 °F 90% 29.83 in 10.0 mi SSE 9.2 mph - 0.00 in   Partly Cloudy
6:53 PM 70.0 °F - 63.0 °F 78% 29.85 in 10.0 mi Variable 5.8 mph - 0.02 in Rain Light Rain
7:53 PM 68.0 °F - 61.0 °F 78% 29.88 in 10.0 mi WSW 6.9 mph - 0.01 in Rain Light Rain
8:53 PM 66.0 °F - 61.0 °F 84% 29.85 in 10.0 mi SE 5.8 mph - 0.01 in   Clear
9:53 PM 64.9 °F - 62.1 °F 90% 29.87 in 10.0 mi Calm Calm - N/A   Scattered Clouds
10:53 PM 64.9 °F - 59.0 °F 81% 29.86 in 9.0 mi South 8.1 mph - 0.02 in Rain Light Rain
11:53 PM 64.9 °F - 61.0 °F 87% 29.84 in 10.0 mi Calm Calm - 0.00 in   Clear